Regional Weather Roundup
Issued by NWS Little Rock, AR

Home | Current Version | Previous Version | Graphics & Text | Print | Product List | Glossary On
Versions: 1 2 3 4 5 6 7 8 9 10 11 12 13 14 15 16 17 18 19 20 21 22 23 24 25 26 27 28 29 30 31 32 33 34 35 36 37 38 39 40 41 42 43 44 45 46 47 48 49 50
000
ASUS44 KLZK 311805
RWRLZK

WEATHER ROUNDUP FOR ARKANSAS
NATIONAL WEATHER SERVICE LITTLE ROCK AR
100 PM CDT THU JUL 31 2014

NOTE: "FAIR" INDICATES FEW OR NO CLOUDS BELOW 12,000 FEET WITH NO
SIGNIFICANT WEATHER AND/OR OBSTRUCTIONS TO VISIBILITY.

ARZ001-003-010-029-311900-
NORTHWEST ARKANSAS

CITY           SKY/WX    TMP DP  RH WIND       PRES   REMARKS
FAYETTEVILLE   CLOUDY    67  65  93 S3        30.11F
6HR MIN TEMP:  65; 6HR MAX TEMP:  68; 6HR PCP:  0.13;

FORT SMITH     CLOUDY    71  66  84 E6        30.08F
6HR MIN TEMP:  67; 6HR MAX TEMP:  72; 6HR PCP:  0.02;

HARRISON       CLOUDY    68  66  93 SW3       30.12S
6HR MIN TEMP:  65; 6HR MAX TEMP:  68; 6HR PCP: TRACE;

BENTONVILLE    CLOUDY    70  64  83 CALM      30.12S
6HR MIN TEMP:  66; 6HR MAX TEMP:  72; 6HR PCP:  0.04;

ROGERS         LGT RAIN  69  65  86 NW3       30.12S
6HR MIN TEMP:  65; 6HR MAX TEMP:  69; 6HR PCP:  0.18;

SILOAM SPGS    CLOUDY    70  61  73 SW10      30.12S
6HR MIN TEMP:  66; 6HR MAX TEMP:  72; 6HR PCP:  0.01;

HIGHFILL       CLOUDY    68  67  96 CALM      30.11S FOG
6HR MIN TEMP:  66; 6HR MAX TEMP:  68; 6HR PCP: TRACE;

SPRINGDALE     LGT RAIN  68  66  94 S8        30.13S FOG
$$

ARZ004-005-016-311900-
NORTH CENTRAL ARKANSAS

CITY           SKY/WX    TMP DP  RH WIND       PRES   REMARKS
BATESVILLE     CLOUDY    72  66  83 W6        30.11S
6HR MIN TEMP:  66; 6HR MAX TEMP:  72; 6HR PCP:  0.29;

FLIPPIN        CLOUDY    68  64  88 S3        30.12S
6HR MIN TEMP:  66; 6HR MAX TEMP:  68; 6HR PCP:  0.11;

MTN HOME       CLOUDY    68  66  93 SW5       30.11S
6HR MIN TEMP:  66; 6HR MAX TEMP:  68; 6HR PCP:  0.02;

$$

ARZ040-041-311900-
WEST CENTRAL ARKANSAS

CITY           SKY/WX    TMP DP  RH WIND       PRES   REMARKS
MENA           CLOUDY    68  66  94 CALM      30.09F
MOUNT IDA      LGT RAIN  68  65  90 CALM      30.08S FOG
6HR MIN TEMP:  65; 6HR MAX TEMP:  69; 6HR PCP:  0.05;

$$

ARZ009-017-025-026-028-311900-
NORTHEAST ARKANSAS

CITY           SKY/WX    TMP DP  RH WIND       PRES   REMARKS
CORNING        FAIR      72  68  88 W9        30.12S
JONESBORO      CLOUDY    70  64  83 W3        30.11F
6HR MIN TEMP:  67; 6HR MAX TEMP:  70; 6HR PCP:  0.15;

NEWPORT        CLOUDY    74  68  81 W6        30.12F
6HR MIN TEMP:  67; 6HR MAX TEMP:  75; 6HR PCP:  0.15;

WALNUT RIDGE   CLOUDY    70  64  83 W8        30.11S
6HR MIN TEMP:  66; 6HR MAX TEMP:  70; 6HR PCP:  0.01;

BLYTHEVILLE    PTSUNNY   76  67  73 W5        30.12S
6HR MIN TEMP:  70; 6HR MAX TEMP:  76;

$$

ARZ022-023-033-042-044-311900-
CENTRAL ARKANSAS

CITY           SKY/WX    TMP DP  RH WIND       PRES   REMARKS
LITTLE ROCK    CLOUDY    74  65  73 E6        30.10S
6HR MIN TEMP:  68; 6HR MAX TEMP:  74; 6HR PCP: TRACE;

N LITTLE ROCK  CLOUDY    72  68  87 E7        30.10S
6HR MIN TEMP:  66; 6HR MAX TEMP:  72;

JACKSONVILLE   CLOUDY    72  66  83 NE6       30.10F
6HR MIN TEMP:  67; 6HR MAX TEMP:  72; 6HR PCP:  0.02;

SEARCY         CLOUDY    70  66  88 CALM      30.13S
6HR MIN TEMP:  67; 6HR MAX TEMP:  70; 6HR PCP:  0.08;

HOT SPRINGS    LGT RAIN  71  66  84 E6        30.10S
6HR MIN TEMP:  66; 6HR MAX TEMP:  71; 6HR PCP:  0.03;

RUSSELLVILLE   CLOUDY    72  66  81 CALM      30.10F
6HR MIN TEMP:  67; 6HR MAX TEMP:  72; 6HR PCP:  0.04;

CLINTON        CLOUDY    70  66  88 CALM      30.12F FOG
$$

ARZ036-311900-
EAST ARKANSAS

CITY           SKY/WX    TMP DP  RH WIND       PRES   REMARKS
WEST MEMPHIS   CLOUDY    75  66  73 NW5       30.10F
6HR MIN TEMP:  68; 6HR MAX TEMP:  75;

$$

ARZ050-053-066-070-073-311900-
SOUTHWEST ARKANSAS

CITY           SKY/WX    TMP DP  RH WIND       PRES   REMARKS
ARKADELPHIA    LGT RAIN  71  69  93 VRB3      30.10R FOG
6HR MIN TEMP:  67; 6HR MAX TEMP:  71; 6HR PCP:  0.23;

CAMDEN         CLOUDY    72  66  83 E3        30.08R
TEXARKANA      CLOUDY    69  68  96 E8        30.05F FOG
6HR MIN TEMP:  66; 6HR MAX TEMP:  69; 6HR PCP:  0.29;

EL DORADO      CLOUDY    75  66  73 SE10      30.07F
6HR MIN TEMP:  66; 6HR MAX TEMP:  76; 6HR PCP:  0.02;

DE QUEEN       CLOUDY    67  65  93 E9        30.04F
6HR MIN TEMP:  65; 6HR MAX TEMP:  68;

$$

ARZ056-057-069-311900-
SOUTHEAST ARKANSAS

CITY           SKY/WX    TMP DP  RH WIND       PRES   REMARKS
PINE BLUFF     CLOUDY    73  66  78 NE3       30.09F
6HR MIN TEMP:  67; 6HR MAX TEMP:  73; 6HR PCP: TRACE;

STUTTGART      CLOUDY    72  64  78 NE7       30.11S
6HR MIN TEMP:  66; 6HR MAX TEMP:  72; 6HR PCP:  0.03;

MONTICELLO     CLOUDY    77  64  64 SE3       30.08F
6HR MIN TEMP:  68; 6HR MAX TEMP:  77; 6HR PCP: TRACE;


$$




USA.gov is the U.S. government's official web portal to all federal, state and local government web resources and services.